CZ-6A DEB, 56252

Orbit data source: Space-Track

CZ-6A DEB, 56252 is space debris in SSO originally from a launch on Fri, 11 Nov 2022 UTC launched from the Taiyaun Space Center, China (TSC). Debris objects in space refer to the collection of defunct objects orbiting the Earth. Examples of debris include non-operational satellites, rocket bodies, and fragments generated from explosions, collisions, or faulty payload assembly.

Loading next visibility...
Identifier
56252, 2022-151ABU
Orbit
SSO
Country
Flag of CNCN / PRC
Related business
Manufacturer
SAST
Mission
Spacecraft
Bus & Motor
Unknown
Mass
Unknown
Launch date (UTC)
2022-11-11 (4 years ago)
Launch vehicle
Unknown
Launch site
Taiyaun Space Center, China (TSC)
Object type
Payload
Rocket body
Debris
Shape & HBR
Unknown shape, 0.1 m
Radar Cross Section
Medium (>0.1 m² and <1 m²)

Expand to show TLE details & history
Last TLE update: 3 days ago

TLE from 3 days ago
0 CZ-6A DEB
1 56252U 22151ABU 26170.40617195  .00000545  00000-0  35616-3 0  9998
2 56252  98.8745 157.5124 0084851 347.9868  11.9275 14.04664254166586
Epoch: 2026-06-19T09:44Z
TLE epoch observation values (Epoch: 2026-06-19T09:44:53.256Z)
Latitude
0.00001°
Longitude
103.65489°
Altitude
820.35 km
Speed
7.474 km/s
True Right ascension
10h 30m 02s
True Declination
0° 00' 00"
Sunlit
Object was in daylight at epoch
Visualization orbit readout
Latitude
Unknown
Longitude
Unknown
Altitude
Unknown
Speed
Unknown
Apparent Right ascension
Unknown
Apparent Declination
Unknown
Sunlit
N/A
Visualization observer readout
Local Sidereal Time
21:27:31
Azimuth
Unknown
Elevation
Unknown
Doppler factor
Unknown
Orbital elements
Apogee altitude
936.418 km
Perigee altitude
813.333 km
Semi-major axis
7,253.012 km
Eccentricity
0.00849
Inclination
98.8745°
RAAN
157.5124°
Arg. of periapsis
347.9868°
True anomaly
12.13056°
Mean anomaly
11.9275°
Eccentric anomaly
12.02882°
Mean motion
3.51371 °/min
Orbital period
102.46 mins
BSTAR
0.00035616
Loading maneuver chart data...
Computing Atmospheric mass density...
Loading historical data...
Loading historical data...
Loading historical data...
Loading historical data...
Loading historical data...
Loading historical data...
Loading historical data...

Documentation

Showing up to 5 results
|